Tracking 17557 objects as of 8-February-2016
HD Live streaming from Space Station
objects crossing your sky now

CRRES DEB (CANISTER)

Track CRRES DEB (CANISTER) now!


NORAD ID: 21590
Int'l Code: 1990-065F
Perigee: 316.0 km
Apogee: 31,313.2 km
Inclination: 20.2 °
Period: 548.1 minutes
Semi major axis: 22185 km
RCS: 0.1267 m2 (medium)
Launch date: July 25, 1990
Source: United States (US)
Launch site: AIR FORCE EASTERN TEST RANGE (AFETR)

Note: This is SATELLITE DEBRIS
Your satellite tracking list
Your tracking list is empty





NASA's NSSDC Master Catalog

Two Line Element Set (TLE):
1 21590U 90065F   16037.29116992  .00001972  00000-0  15912-2 0  9992
2 21590  20.2230 277.5453 6985899  27.1175 356.4847  2.6272182122392
Source of the keplerian elements: AFSPC

N2YO: 1506